Regional Weather Roundup
Issued by NWS Little Rock, AR

Home | Current Version | Previous Version | Graphics & Text | Print | Product List | Glossary On
Versions: 1 2 3 4 5 6 7 8 9 10 11 12 13 14 15 16 17 18 19 20 21 22 23 24 25 26 27 28 29 30 31 32 33 34 35 36 37 38 39 40 41 42 43 44 45 46 47 48 49 50
000
ASUS44 KLZK 292105
RWRLZK

WEATHER ROUNDUP FOR ARKANSAS
NATIONAL WEATHER SERVICE LITTLE ROCK AR
400 PM CDT FRI MAY 29 2015

NOTE: "FAIR" INDICATES FEW OR NO CLOUDS BELOW 12,000 FEET WITH NO
SIGNIFICANT WEATHER AND/OR OBSTRUCTIONS TO VISIBILITY.

ARZ001-003-010-029-292200-
NORTHWEST ARKANSAS

CITY           SKY/WX    TMP DP  RH WIND       PRES   REMARKS
FAYETTEVILLE   LGT RAIN  77  68  73 S8        29.95F
FORT SMITH     TSTM      72  69  90 S16       29.94R VSB 3/4
HARRISON       CLOUDY    81  66  60 SE15      29.97F
BENTONVILLE    PTSUNNY   77  64  65 S8        29.94F
ROGERS         PTSUNNY   79  66  64 SE12      29.94F
SILOAM SPGS    CLOUDY    73  64  73 S8        29.95F
HIGHFILL       LGT RAIN  74  68  81 S20G28    29.94F
SPRINGDALE     MOSUNNY   79  66  65 SE12G23   29.97F
$$

ARZ004-005-016-292200-
NORTH CENTRAL ARKANSAS

CITY           SKY/WX    TMP DP  RH WIND       PRES   REMARKS
BATESVILLE     MOSUNNY   84  70  61 SE7       29.96F HX  88
FLIPPIN          N/A     82  68  61 SE5       29.94F HX  85
MTN HOME       PTSUNNY   82  67  60 S9        29.95F
$$

ARZ040-041-292200-
WEST CENTRAL ARKANSAS

CITY           SKY/WX    TMP DP  RH WIND       PRES   REMARKS
MENA           CLOUDY    70  68  94 S5G17     29.97R
MOUNT IDA      CLOUDY    79  72  79 SE8       29.91F
$$

ARZ009-017-025-026-028-292200-
NORTHEAST ARKANSAS

CITY           SKY/WX    TMP DP  RH WIND       PRES   REMARKS
CORNING        LGT RAIN  84  70  61 SE9       29.98F HX  88
JONESBORO      MOSUNNY   84  69  60 SE12G18   29.97F THUNDER HX  88
NEWPORT        MOSUNNY   89  69  51 S14G20    29.97F HX  93
WALNUT RIDGE   MOSUNNY   84  70  61 S8        29.97F HX  88
BLYTHEVILLE    PTSUNNY   82  70  66 S15       30.01F HX  86
$$

ARZ022-023-033-042-044-292200-
CENTRAL ARKANSAS

CITY           SKY/WX    TMP DP  RH WIND       PRES   REMARKS
LITTLE ROCK    PTSUNNY   86  67  52 S12       29.94F HX  89
N LITTLE ROCK  PTSUNNY   85  72  65 SE16G23   29.94F HX  91
JACKSONVILLE   PTSUNNY   87  71  58 SE12      29.94F HX  92
SEARCY         PTSUNNY   87  72  60 S10       29.97F HX  93
HOT SPRINGS    CLOUDY    83  70  64 SE8       29.93F HX  87
RUSSELLVILLE   CLOUDY    84  70  62 VRB6      29.92F HX  88
CLINTON        FAIR      84  72  65 SE8       29.96F HX  89
$$

ARZ036-292200-
EAST ARKANSAS

CITY           SKY/WX    TMP DP  RH WIND       PRES   REMARKS
WEST MEMPHIS   MOSUNNY   84  73  69 SE15      29.99F HX  90
$$

ARZ050-053-066-070-073-292200-
SOUTHWEST ARKANSAS

CITY           SKY/WX    TMP DP  RH WIND       PRES   REMARKS
ARKADELPHIA    FAIR      86  75  69 SE7       29.92F HX  95
CAMDEN         PTSUNNY   86  68  54 NE8       29.92F HX  89
TEXARKANA      CLOUDY    76  68  76 SE21G31   29.91R THUNDER
EL DORADO      PTSUNNY   85  71  63 SE12      29.94F HX  90
DE QUEEN       LGT RAIN  69  68  96 E5        29.90F
$$

ARZ056-057-069-292200-
SOUTHEAST ARKANSAS

CITY           SKY/WX    TMP DP  RH WIND       PRES   REMARKS
PINE BLUFF     MOSUNNY   87  71  58 SE15      29.95F HX  93
STUTTGART      MOSUNNY   90  70  51 MISG      29.96F HX  95
MONTICELLO     MOSUNNY   87  70  56 SE13      29.96F HX  92

$$





USA.gov is the U.S. government's official web portal to all federal, state and local government web resources and services.